Home > Time Zones > World Clock > Weather > U.S.A. > Reno > Past weeks

Flag for U.S.A. Weather past 2 weeks in Reno, Nevada, U.S.A.

Now
67 °F

Clear.


Feels Like: 67 °F
Forecast: 59 / 90 °F
Wind: 5 mph from North

Location: Reno Tahoe International Airport

Current Time: Sep 16, 2014 at 3:03:54 AM

Latest Report: Sep 16, 2014 at 1:55 AM


Visibility: 8 mi

Pressure: 29.88 "Hg

Humidity: 44%

Dew point: 44 °F

Location of RenoLocation

Historic Weather in Reno — Graph

°F

Reno temperature yesterday

Maximum temperature yesterday: 93 °F (at 2:55 PM)
Minimum temperature yesterday: 57 °F (at 5:55 AM)
Average temperature yesterday: 74 °F

Past Weeks' High & Low Weather Summary

 TemperatureHumidityPressure
High95 °F (Sep 2, 2:55 PM)55% (Sep 15, 5:55 AM)30.06 "Hg (Sep 15, 5:55 AM)
Low50 °F (Sep 9, 6:55 AM)7% (Sep 4, 2:55 PM)29.68 "Hg (Sep 3, 3:55 PM)
Average72 °F25%29.88 "Hg
* Reported Sep 1 1:55 AM — Sep 16 1:55 AM, Reno, Weather by CustomWeather, © 2014

Note: Actual official high and low records may vary slightly from our data, if they occured in-between our weather recording intervals... More about our weather records

Advertising

Reno weather history for previous 24 hours

 ConditionsComfort  
Time TempWeatherWind HumidityBarometerVisibility
1:55 AM
Sep 16
67 °FClear.5 mph44%29.88 "Hg8 mi
12:55 AM68 °FClear.3 mph44%29.88 "Hg6 mi
11:55 PM
Sep 15
72 °FPassing clouds.5 mph37%29.88 "Hg6 mi
10:55 PM73 °FPassing clouds.No wind36%29.88 "Hg6 mi
9:55 PM76 °FPassing clouds.5 mph32%29.89 "Hg6 mi
8:55 PM78 °FPassing clouds.6 mph29%29.88 "Hg5 mi
7:55 PM80 °FScattered clouds.No wind27%29.87 "Hg6 mi
6:55 PM83 °FScattered clouds.12 mph24%29.85 "Hg6 mi
5:55 PM85 °FScattered clouds.16 mph23%29.84 "Hg5 mi
4:55 PM89 °FScattered clouds.20 mph21%29.83 "Hg6 mi
3:55 PM91 °FBroken clouds.10 mph19%29.83 "Hg9 mi
2:55 PM93 °FBroken clouds.18 mph16%29.83 "Hg10 mi
1:55 PM91 °FBroken clouds.20 mph18%29.85 "Hg10 mi
12:55 PM90 °FPartly sunny.23 mph20%29.88 "Hg10 mi
11:55 AM83 °FPartly sunny.6 mph26%29.91 "Hg10 mi
10:55 AM78 °FPartly sunny.No wind25%29.93 "Hg10 mi
9:55 AM71 °FPassing clouds.No wind31%29.96 "Hg10 mi
8:55 AM64 °FPassing clouds.No wind43%29.97 "Hg10 mi
7:55 AM60 °FScattered clouds.No wind47%29.98 "Hg10 mi
6:55 AM57 °FPassing clouds.No wind53%29.98 "Hg10 mi
5:55 AM57 °FPassing clouds.No wind55%29.96 "Hg10 mi
4:55 AM58 °FPassing clouds.No wind51%29.93 "Hg10 mi
3:55 AM59 °FPassing clouds.3 mph49%29.92 "Hg10 mi
Weather by CustomWeather, © 2014

See weather overviewHow to use our weather pages